Find Starlink 6108

NORAD ID: 57155 Int'l Des: 2023-090 Owner: SPXS Country: US Constellation: starlink operational
LEOCIRCULAR

リアルタイム位置

3D地球を読み込み中...

Starlink 6108について

説明を読み込み中...

次回通過

Passes for default location (London). Set your location on the main map for personalized predictions.

高度履歴

Loading altitude history...

軌道要素

1 57155U 23090BG 26105.98042467 .00001989 00000-0 83851-4 0 9997
2 57155 43.0029 52.9768 0001118 251.6880 108.3850 15.26728163156245
Epoch: Apr 15, 2026 • Age: 20 hours

現在のステータス

高度 488.9 km
速度 7.62 km/s
衛星直下点 -16.97°S, 113.24°W
打ち上げ日 Jun 23, 2023
運用期間 2.8 years
タイプ internet

技術仕様

分類 Payload
質量 305.00 kg
乾燥質量 290.00 kg
総質量 305.00 kg
長さ 0.20 m
直径 2.80 m
スパン 9.00 m
形状 Box + pan
製造者 SPXS
バスタイプ Starlink
フェーズステータス In Orbit
所有者/国 SPXS/US

Most Searched